Zapata, TX

6:30 AM CDT on March 30, 2017 (GMT -0500)
Zapata

Weather History for KAPY - August, 2013

Change the Weather History Date:

Saturday, August 3, 2013

  Actual Average (KLRD) Record (KLRD)
Temperature  
Mean Temperature 90 °F -  
Max Temperature 104 °F 97 °F 110 °F (1998)
Min Temperature 76 °F 75 °F 63 °F (1978)
Cooling Degree Days 25    
Growing Degree Days 40 (Base 50)    
Moisture  
Dew Point 59 °F    
Average Humidity 41    
Maximum Humidity 80    
Minimum Humidity 12    
Precipitation  
Precipitation 0.00 in - - ()
Sea Level Pressure  
Sea Level Pressure 29.93 in    
Wind  
Wind Speed 10 mph (SE)    
Max Wind Speed 20 mph    
Max Gust Speed 26 mph    
Visibility 10 miles    
Events      
Averages and records for this station are not official NWS values.
T = Trace of Precipitation, MM = Missing Value Source: NWS Daily Summary

Daily Weather History Graph

Daily Weather History Graph

Search for Another Location

Airport or City:

Trip Planner

Search our weather history database for the weather conditions in past years. The results will help you decide how hot, cold, wet, or windy it might be!

Date:

Astronomy

Aug. 03, 2013 Rise Set
Actual Time 7:02 AM CDT 8:23 PM CDT
Civil Twilight 6:37 AM CDT 8:48 PM CDT
Nautical Twilight 6:07 AM CDT 9:17 PM CDT
Astronomical Twilight 5:37 AM CDT 9:48 PM CDT
Moon 4:16 AM CDT (8/3) 6:04 PM CDT (8/3)
Length of Visible Light 14h 10m
Length of Day
13h 20m
Waning Crescent, 9% of the Moon is Illuminated
Aug 3
Waning Crescent
Aug 6
New
Aug 14
First Quarter
Aug 20
Full
Aug 28
Last Quarter

Hourly Weather History & Observations

Time (CDT) Temp. Heat Index Dew Point Humidity Pressure Visibility Wind Dir Wind Speed Gust Speed Precip Events Conditions
12:15 AM 85.1 °F 85.0 °F 60.3 °F 43% 29.95 in 10.0 mi SE 11.5 mph 16.1 mph N/A   Clear
12:35 AM 84.4 °F 85.2 °F 62.6 °F 48% 29.96 in 10.0 mi SE 12.7 mph 18.4 mph N/A   Clear
12:55 AM 83.7 °F 84.9 °F 63.5 °F 51% 29.96 in 10.0 mi SE 12.7 mph 19.6 mph N/A   Clear
1:15 AM 83.3 °F 84.8 °F 64.6 °F 53% 29.96 in 10.0 mi SE 10.4 mph 16.1 mph N/A   Clear
1:35 AM 82.6 °F 84.7 °F 66.0 °F 57% 29.96 in 10.0 mi SE 8.1 mph 17.3 mph N/A   Clear
1:55 AM 82.0 °F 84.3 °F 66.6 °F 59% 29.96 in 10.0 mi SSE 10.4 mph - N/A   Clear
2:15 AM 81.7 °F 84.3 °F 67.5 °F 62% 29.96 in 10.0 mi SE 10.4 mph 17.3 mph N/A   Clear
2:35 AM 81.1 °F 84.0 °F 68.2 °F 65% 29.96 in 10.0 mi SE 10.4 mph 16.1 mph N/A   Clear
2:55 AM 80.8 °F 83.6 °F 68.4 °F 66% 29.96 in 10.0 mi SE 8.1 mph - N/A   Clear
3:15 AM 80.6 °F 83.5 °F 68.9 °F 67% 29.95 in 10.0 mi SE 6.9 mph - N/A   Clear
3:35 AM 80.2 °F 83.2 °F 69.1 °F 69% 29.95 in 10.0 mi SE 8.1 mph - N/A   Clear
3:55 AM 79.9 °F - 69.3 °F 70% 29.95 in 10.0 mi SE 8.1 mph - N/A   Clear
4:15 AM 79.5 °F - 69.4 °F 71% 29.94 in 10.0 mi SE 6.9 mph - N/A   Clear
4:35 AM 79.3 °F - 69.6 °F 72% 29.94 in 10.0 mi ESE 6.9 mph - N/A   Clear
4:55 AM 78.8 °F - 69.6 °F 73% 29.93 in 10.0 mi ESE 6.9 mph - N/A   Clear
5:35 AM 78.1 °F - 69.8 °F 76% 29.94 in 10.0 mi ESE 4.6 mph - N/A   Clear
5:55 AM 77.9 °F - 69.8 °F 76% 29.94 in 10.0 mi ESE 5.8 mph - N/A   Clear
6:15 AM 77.4 °F - 69.8 °F 77% 29.94 in 10.0 mi East 6.9 mph - N/A   Clear
6:35 AM 77.0 °F - 69.8 °F 78% 29.94 in 10.0 mi East 5.8 mph - N/A   Clear
6:55 AM 76.6 °F - 69.8 °F 79% 29.95 in 10.0 mi East 4.6 mph - N/A   Clear
7:15 AM 76.5 °F - 69.8 °F 80% 29.95 in 10.0 mi East 5.8 mph - N/A   Clear
7:35 AM 77.0 °F - 70.0 °F 79% 29.96 in 10.0 mi East 5.8 mph - N/A   Clear
7:55 AM 78.1 °F - 70.0 °F 76% 29.96 in 10.0 mi ESE 9.2 mph - N/A   Clear
8:15 AM 79.3 °F - 69.8 °F 72% 29.97 in 10.0 mi ESE 5.8 mph - N/A   Clear
8:35 AM 80.1 °F 82.8 °F 68.7 °F 68% 29.97 in 10.0 mi SE 8.1 mph - N/A   Clear
8:55 AM 82.2 °F 83.8 °F 64.6 °F 55% 29.97 in 10.0 mi SSE 8.1 mph - N/A   Clear
9:15 AM 83.5 °F 83.9 °F 61.3 °F 47% 29.97 in 10.0 mi SE 11.5 mph - N/A   Clear
9:35 AM 84.7 °F 85.0 °F 61.3 °F 45% 29.97 in 10.0 mi SSE 11.5 mph 16.1 mph N/A   Clear
9:55 AM 86.7 °F 85.9 °F 58.3 °F 38% 29.97 in 10.0 mi SSE 10.4 mph - N/A   Clear
10:15 AM 87.8 °F 86.7 °F 57.7 °F 36% 29.97 in 10.0 mi SSE 10.4 mph 18.4 mph N/A   Clear
10:35 AM 89.2 °F 87.7 °F 56.7 °F 33% 29.97 in 10.0 mi SE 11.5 mph 16.1 mph N/A   Clear
10:55 AM 90.9 °F 88.9 °F 55.2 °F 30% 29.97 in 10.0 mi SSE 8.1 mph 16.1 mph N/A   Clear
11:15 AM 92.1 °F - 52.5 °F 26% 29.97 in 10.0 mi SSE 10.4 mph 17.3 mph N/A   Clear
11:35 AM 93.6 °F - 51.4 °F 24% 29.97 in 10.0 mi ESE 10.4 mph - N/A   Clear
11:55 AM 94.6 °F - 49.1 °F 21% 29.97 in 10.0 mi SE 10.4 mph 17.3 mph N/A   Clear
12:15 PM 95.4 °F - 48.6 °F 20% 29.97 in 10.0 mi ESE 11.5 mph 21.9 mph N/A   Clear
12:35 PM 96.6 °F - 47.7 °F 19% 29.96 in 10.0 mi SE 9.2 mph 19.6 mph N/A   Clear
12:55 PM 97.2 °F - 48.4 °F 19% 29.96 in 10.0 mi SE 9.2 mph - N/A   Clear
1:15 PM 98.2 °F - 48.4 °F 18% 29.95 in 10.0 mi ESE 8.1 mph 17.3 mph N/A   Clear
1:35 PM 99.0 °F - 45.5 °F 16% 29.94 in 10.0 mi East 8.1 mph 18.4 mph N/A   Clear
1:55 PM 100.4 °F - 43.7 °F 14% 29.94 in 10.0 mi SSE 8.1 mph - N/A   Clear
2:15 PM 100.4 °F - 43.3 °F 14% 29.94 in 10.0 mi SE 5.8 mph - N/A   Clear
2:35 PM 101.8 °F - 40.5 °F 12% 29.93 in 10.0 mi SSE 12.7 mph 19.6 mph N/A   Clear
2:55 PM 103.3 °F - 40.5 °F 12% 29.92 in 10.0 mi SSE 9.2 mph 16.1 mph N/A   Clear
3:15 PM 102.2 °F - 39.6 °F 12% 29.91 in 10.0 mi East 6.9 mph 17.3 mph N/A   Clear
3:35 PM 102.9 °F - 40.8 °F 12% 29.90 in 10.0 mi South 13.8 mph 20.7 mph N/A   Clear
3:55 PM 102.9 °F - 42.1 °F 13% 29.89 in 10.0 mi SSE 16.1 mph 21.9 mph N/A   Clear
4:15 PM 103.6 °F - 43.9 °F 13% 29.89 in 10.0 mi SE 11.5 mph 20.7 mph N/A   Clear
4:35 PM 104.0 °F - 46.9 °F 15% 29.87 in 10.0 mi SSE 10.4 mph 21.9 mph N/A   Clear
4:55 PM 103.8 °F - 49.5 °F 16% 29.87 in 10.0 mi SSE 12.7 mph 20.7 mph N/A   Clear
5:15 PM 103.6 °F - 51.3 °F 17% 29.86 in 10.0 mi SSE 13.8 mph 19.6 mph N/A   Clear
5:35 PM 103.1 °F 101.1 °F 53.4 °F 19% 29.86 in 10.0 mi SSE 9.2 mph 24.2 mph N/A   Clear
5:55 PM 100.9 °F 99.6 °F 55.2 °F 22% 29.86 in 10.0 mi ESE 11.5 mph 20.7 mph N/A   Scattered Clouds
6:15 PM 101.8 °F 100.4 °F 55.4 °F 21% 29.86 in 10.0 mi ESE 16.1 mph 20.7 mph N/A   Scattered Clouds
6:35 PM 102.0 °F 100.6 °F 55.8 °F 21% 29.85 in 10.0 mi SE 12.7 mph 20.7 mph N/A   Scattered Clouds
6:55 PM 101.7 °F 100.6 °F 55.6 °F 22% 29.85 in 10.0 mi ESE 10.4 mph 20.7 mph N/A   Scattered Clouds
7:15 PM 100.6 °F 99.5 °F 56.7 °F 23% 29.86 in 10.0 mi East 16.1 mph 23.0 mph N/A   Scattered Clouds
7:35 PM 98.8 °F 97.4 °F 56.5 °F 24% 29.86 in 10.0 mi ESE 12.7 mph 18.4 mph N/A   Scattered Clouds
7:55 PM 98.2 °F 97.1 °F 56.7 °F 25% 29.86 in 10.0 mi ESE 13.8 mph 17.3 mph N/A   Clear
8:15 PM 97.0 °F 96.1 °F 57.7 °F 27% 29.87 in 10.0 mi ESE 12.7 mph 19.6 mph N/A   Clear
8:35 PM 95.9 °F 95.3 °F 58.6 °F 29% 29.87 in 10.0 mi SE 11.5 mph 21.9 mph N/A   Clear
8:55 PM 94.5 °F 94.0 °F 59.9 °F 31% 29.88 in 10.0 mi SE 15.0 mph 24.2 mph N/A   Clear
9:15 PM 93.2 °F 92.9 °F 60.4 °F 33% 29.89 in 10.0 mi SE 13.8 mph 24.2 mph N/A   Clear
9:35 PM 92.5 °F 92.2 °F 60.3 °F 34% 29.91 in 10.0 mi SE 11.5 mph 24.2 mph N/A   Clear
9:55 PM 91.6 °F 91.3 °F 60.3 °F 35% 29.92 in 10.0 mi SE 13.8 mph 21.9 mph N/A   Clear
10:15 PM 90.9 °F 90.6 °F 60.8 °F 36% 29.93 in 10.0 mi SE 19.6 mph 24.2 mph N/A   Clear
10:35 PM 90.0 °F 91.7 °F 64.8 °F 43% 29.95 in 10.0 mi SE 15.0 mph 26.5 mph N/A   Clear
10:55 PM 88.9 °F 91.0 °F 65.8 °F 46% 29.96 in 10.0 mi SE 13.8 mph 24.2 mph N/A   Clear
11:15 PM 88.0 °F 90.0 °F 65.7 °F 47% 29.97 in 10.0 mi SE 16.1 mph 26.5 mph N/A   Clear
11:35 PM 87.3 °F 89.5 °F 65.8 °F 49% 29.97 in 10.0 mi SE 15.0 mph 23.0 mph N/A   Clear
11:55 PM 86.4 °F 88.7 °F 66.2 °F 51% 29.98 in 10.0 mi SE 13.8 mph 21.9 mph N/A   Clear